FW1396 Weather Reports


Display with metric or nautical units.
time (UTC)temp
F
wind
direction
speed
MPH
gust
MPH
rain 1hr
in
rain 24hr
in
rain mn
in
humidity
%
barometer
mb
20260902164413 96 245 3.0 9.0 0.00 0.00 0.00 50 1000.4
20260902163913 96 250 3.0 6.0 0.00 0.00 0.00 52 1000.5
20260902163142 96 252 2.0 9.0 0.00 0.00 0.00 53 1000.6
20260902162642 96 258 2.0 9.0 0.00 0.00 0.00 53 1000.6
20260902162142 96 231 1.0 13.0 0.00 0.00 0.00 53 1000.7
20260902161641 95 307 6.0 13.0 0.00 0.00 0.00 55 1000.7
20260902161412 95 212 3.0 7.0 0.00 0.00 0.00 55 1000.7
20260902160641 94 257 2.0 10.0 0.00 0.00 0.00 57 1000.8
20260902160141 94 4 4.0 10.0 0.00 0.00 0.00 57 1000.9
20260902155911 94 217 4.0 7.0 0.00 0.00 0.00 58 1001.0
20260902155143 93 255 4.0 7.0 0.00 0.00 0.00 59 1000.8
20260902154641 92 231 3.0 7.0 0.00 0.00 0.00 60 1000.9
20260902154139 92 228 5.0 7.0 0.00 0.00 0.00 62 1001.0
20260902153910 91 169 2.0 7.0 0.00 0.00 0.00 63 1001.1
20260902153411 91 213 4.0 7.0 0.00 0.00 0.00 64 1001.1
20260902152641 90 207 2.0 4.0 0.00 0.00 0.00 65 1001.2
20260902152140 90 237 3.0 4.0 0.00 0.00 0.00 68 1001.1
20260902151915 89 240 1.0 4.0 0.00 0.00 0.00 68 1001.1
20260902151140 88 240 3.0 4.0 0.00 0.00 0.00 68 1001.2
20260902150640 88 223 3.0 4.0 0.00 0.00 0.00 70 1001.3
20260902150412 86 207 2.0 4.0 0.00 0.00 0.00 71 1001.2
20260902145638 86 228 1.0 5.0 0.00 0.00 0.00 71 1001.3
20260902145142 86 264 2.0 6.0 0.00 0.00 0.00 72 1001.3
20260902144639 85 252 4.0 6.0 0.00 0.00 0.00 72 1001.3
20260902144411 85 216 3.0 5.0 0.00 0.00 0.00 74 1001.4
20260902143640 84 207 3.0 5.0 0.00 0.00 0.00 74 1001.3
20260902143139 83 220 2.0 4.0 0.00 0.00 0.00 76 1001.2
20260902142639 82 209 3.0 4.0 0.00 0.00 0.00 79 1001.2
20260902142139 82 209 1.0 3.0 0.00 0.00 0.00 79 1001.3
20260902141639 80 209 0.0 0.0 0.00 0.00 0.00 82 1001.3
20260902141138 80 209 0.0 0.0 0.00 0.00 0.00 82 1001.3
20260902140638 80 209 0.0 0.0 0.00 0.00 0.00 89 1001.4
20260902140137 0 0.0 0.0 0.00 0.00 0.00 1001.5
20260902135134 0 0.0 0.0 0.00 0.00 0.00 1001.6
20260902134905 77 209 0.0 0.0 0.00 0.00 0.00 89 1001.6
20260902134132 77 209 0.0 0.0 0.00 0.00 0.00 89 1001.5
20260902133903 76 209 0.0 0.0 0.00 0.00 0.00 89 1001.6
20260902133133 75 209 0.0 0.0 0.00 0.00 0.00 90 1001.5
20260902132901 75 209 0.0 0.0 0.00 0.00 0.00 90 1001.6
20260902132131 74 209 0.0 0.0 0.00 0.00 0.00 92 1001.6
20260902131629 74 209 0.0 0.0 0.00 0.00 0.00 92 1001.6
20260902131130 74 209 0.0 0.0 0.00 0.00 0.00 92 1001.6
20260902130631 74 209 0.0 0.0 0.00 0.00 0.00 93 1001.6
20260902125900 73 209 0.0 0.0 0.00 0.00 0.00 95 1001.6
20260902125130 73 209 0.0 0.0 0.00 0.00 0.00 95 1001.7
20260902124627 72 209 0.0 0.0 0.00 0.00 0.00 95 1001.5
20260902124129 72 209 0.0 0.0 0.00 0.00 0.00 95 1001.6
20260902123628 72 209 0.0 0.0 0.00 0.00 0.00 95 1001.5
20260902123128 71 209 0.0 0.0 0.00 0.00 0.00 94 1001.4
20260902122628 71 209 0.0 0.0 0.00 0.00 0.00 94 1001.4
20260902122127 71 209 0.0 0.0 0.00 0.00 0.00 94 1001.4
20260902121628 71 209 0.0 0.0 0.00 0.00 0.00 94 1001.4
20260902121128 71 209 0.0 0.0 0.00 0.00 0.00 94 1001.4
20260902120628 71 209 0.0 0.0 0.00 0.00 0.00 94 1001.4
20260902120130 71 209 0.0 0.0 0.00 0.00 0.00 94 1001.3
20260902115629 71 209 0.0 0.0 0.00 0.00 0.00 93 1001.3
20260902114626 71 209 0.0 0.0 0.00 0.00 0.00 93 1001.2
20260902114357 71 209 0.0 0.0 0.00 0.00 0.00 93 1001.1
20260902113626 71 209 0.0 0.0 0.00 0.00 0.00 93 1000.9
20260902113128 71 209 0.0 0.0 0.00 0.00 0.00 93 1000.8
20260902112628 71 209 0.0 0.0 0.00 0.00 0.00 93 1000.6
20260902112126 72 209 0.0 0.0 0.00 0.00 0.00 93 1000.6
20260902111854 72 209 0.0 0.0 0.00 0.00 0.00 93 1000.7
20260902111125 72 209 0.0 0.0 0.00 0.00 0.00 93 1000.7
20260902110625 72 209 0.0 0.0 0.00 0.00 0.00 93 1000.7
20260902110125 72 209 0.0 0.0 0.00 0.00 0.00 93 1000.5
20260902105625 72 209 0.0 0.0 0.00 0.00 0.00 93 1000.6
20260902105125 72 209 0.0 0.0 0.00 0.00 0.00 93 1000.5
20260902104624 72 209 0.0 0.0 0.00 0.00 0.00 93 1000.4
20260902104356 72 209 0.0 0.0 0.00 0.00 0.00 93 1000.5
20260902103856 72 209 0.0 0.0 0.00 0.00 0.00 93 1000.5
20260902103125 72 209 0.0 0.0 0.00 0.00 0.00 93 1000.6
20260902102856 72 209 0.0 0.0 0.00 0.00 0.00 93 1000.6
20260902102125 72 209 0.0 0.0 0.00 0.00 0.00 92 1000.7
20260902101623 72 209 0.0 0.0 0.00 0.00 0.00 93 1000.6
20260902101354 72 209 0.0 0.0 0.00 0.00 0.00 92 1000.6
20260902100623 72 209 0.0 0.0 0.00 0.00 0.00 92 1000.6
20260902100124 73 209 0.0 0.0 0.00 0.00 0.00 92 1000.4
20260902095624 73 209 0.0 0.0 0.00 0.00 0.00 92 1000.5
20260902095120 73 209 0.0 0.0 0.00 0.00 0.00 92 1000.5
20260902094622 73 209 0.0 0.0 0.00 0.00 0.00 92 1000.5
20260902094124 73 209 0.0 0.0 0.00 0.00 0.00 92 1000.6
20260902093624 73 209 0.0 0.0 0.00 0.00 0.00 92 1000.5
20260902093123 73 209 0.0 0.0 0.00 0.00 0.00 91 1000.6
20260902092622 73 209 0.0 0.0 0.00 0.00 0.00 91 1000.6
20260902092122 73 209 0.0 0.0 0.00 0.00 0.00 91 1000.6
20260902091622 73 209 0.0 0.0 0.00 0.00 0.00 91 1000.6
20260902091119 73 209 0.0 0.0 0.00 0.00 0.00 91 1000.5
20260902090621 73 209 0.0 0.0 0.00 0.00 0.00 91 1000.5
20260902090121 74 209 0.0 0.0 0.00 0.00 0.00 91 1000.5
20260902085623 74 209 0.0 0.0 0.00 0.00 0.00 91 1000.5
20260902085123 74 209 0.0 0.0 0.00 0.00 0.00 91 1000.5
20260902084634 74 209 0.0 0.0 0.00 0.00 0.00 91 1000.5
20260902084121 74 209 0.0 0.0 0.00 0.00 0.00 90 1000.6
20260902083622 74 209 0.0 0.0 0.00 0.00 0.00 90 1000.5
20260902083121 74 209 0.0 0.0 0.00 0.00 0.00 90 1000.4
20260902082622 74 209 0.0 0.0 0.00 0.00 0.00 90 1000.4
20260902082120 74 209 0.0 0.0 0.00 0.00 0.00 90 1000.4
20260902081623 74 209 0.0 0.0 0.00 0.00 0.00 90 1000.4
20260902081122 74 209 0.0 0.0 0.00 0.00 0.00 90 1000.5
20260902080620 74 209 0.0 0.0 0.00 0.00 0.00 89 1000.3
20260902080120 74 209 0.0 0.0 0.00 0.00 0.00 89 1000.3
20260902075620 74 209 0.0 0.0 0.00 0.00 0.00 89 1000.3
20260902075121 75 209 0.0 0.0 0.00 0.00 0.00 89 1000.3
20260902074617 75 209 0.0 0.0 0.00 0.00 0.00 89 1000.3
20260902074119 75 209 0.0 0.0 0.00 0.00 0.00 89 1000.4
20260902073618 75 209 0.0 0.0 0.00 0.00 0.00 89 1000.4
20260902073120 75 209 0.0 0.0 0.00 0.00 0.00 89 1000.3
20260902072621 75 209 0.0 0.0 0.00 0.00 0.00 88 1000.4
20260902072119 75 209 0.0 0.0 0.00 0.00 0.00 88 1000.4
20260902071621 75 209 0.0 0.0 0.00 0.00 0.00 87 1000.5
20260902071119 75 209 0.0 0.0 0.00 0.00 0.00 87 1000.5
20260902070619 75 209 0.0 0.0 0.00 0.00 0.00 87 1000.5
20260902070119 76 209 0.0 0.0 0.00 0.00 0.00 87 1000.6
20260902065619 76 209 0.0 0.0 0.00 0.00 0.00 87 1000.5
20260902065350 76 209 0.0 0.0 0.00 0.00 0.00 87 1000.5
20260902064619 76 209 0.0 0.0 0.00 0.00 0.00 87 1000.5
20260902064119 76 209 0.0 0.0 0.00 0.00 0.00 87 1000.4
20260902062619 76 209 0.0 0.0 0.00 0.00 0.00 86 1000.4
20260902062351 76 209 0.0 0.0 0.00 0.00 0.00 86 1000.4
20260902061849 76 209 0.0 0.0 0.00 0.00 0.00 86 1000.3
20260902061118 77 209 0.0 0.0 0.00 0.00 0.00 86 1000.4
20260902060850 77 209 0.0 0.0 0.00 0.00 0.00 85 1000.4
20260902060119 77 209 0.0 0.0 0.00 0.00 0.00 85 1000.4
20260902055617 77 209 0.0 0.0 0.00 0.00 0.00 85 1000.4
20260902055119 77 209 0.0 0.0 0.00 0.00 0.00 85 1000.4
20260902054617 77 209 0.0 0.0 0.00 0.00 0.00 84 1000.4
20260902054118 78 209 0.0 0.0 0.00 0.00 0.00 84 1000.4
20260902053618 78 209 0.0 0.0 0.00 0.00 0.00 84 1000.4
20260902053117 78 209 0.0 0.0 0.00 0.00 0.00 83 1000.3
20260902052849 78 209 0.0 0.0 0.00 0.00 0.00 83 1000.2
20260902052349 78 209 0.0 0.0 0.00 0.00 0.00 83 1000.1
20260902051618 78 209 0.0 0.0 0.00 0.00 0.00 82 1000.1
20260902051117 78 209 0.0 0.0 0.00 0.00 0.00 82 1000.0
20260902050616 78 209 0.0 0.0 0.00 0.00 0.00 82 1000.0
20260902050118 79 209 0.0 0.0 0.00 0.00 0.00 82 999.9
20260902045617 79 209 0.0 0.0 0.00 0.00 0.00 81 1000.0
20260902045117 79 209 0.0 0.0 0.00 0.00 0.00 81 1000.0
20260902044617 79 209 0.0 0.0 0.00 0.00 0.00 81 1000.0
20260902044117 79 209 0.0 0.0 0.00 0.00 0.00 81 1000.0
20260902043617 79 209 0.0 0.0 0.00 0.00 0.00 80 999.9
20260902043115 80 209 0.0 0.0 0.00 0.00 0.00 80 999.9
20260902042616 80 209 0.0 0.0 0.00 0.00 0.00 80 999.8
20260902042116 80 209 0.0 0.0 0.00 0.00 0.00 79 999.8
20260902041617 80 209 0.0 0.0 0.00 0.00 0.00 79 999.8
20260902041118 80 209 0.0 0.0 0.00 0.00 0.00 78 999.8
20260902040616 80 209 0.0 0.0 0.00 0.00 0.00 78 999.7
20260902040116 81 209 0.0 0.0 0.00 0.00 0.00 77 999.7
20260902035616 81 209 0.0 0.0 0.00 0.00 0.00 77 999.7
20260902035114 81 209 0.0 0.0 0.00 0.00 0.00 77 999.6
20260902034616 81 209 0.0 0.0 0.00 0.00 0.00 77 999.7
20260902034347 82 209 0.0 0.0 0.00 0.00 0.00 76 999.7
20260902033614 82 209 0.0 1.0 0.00 0.00 0.00 76 999.7
20260902033115 82 209 0.0 2.0 0.00 0.00 0.00 76 999.7
20260902032346 82 209 0.0 2.0 0.00 0.00 0.00 75 999.6
20260902031615 83 209 1.0 2.0 0.00 0.00 0.00 74 999.6
20260902031115 83 209 1.0 2.0 0.00 0.00 0.00 74 999.5
20260902030615 0 0.0 0.0 0.00 0.00 0.00 999.5
20260902030344 84 209 1.0 2.0 0.00 0.00 0.00 72 999.5
20260902025613 84 209 1.0 2.0 0.00 0.00 0.00 72 999.5
20260902025111 84 209 1.0 2.0 0.00 0.00 0.00 72 999.4
20260902024843 84 209 0.0 2.0 0.00 0.00 0.00 71 999.3
20260902024113 85 209 1.0 2.0 0.00 0.00 0.00 70 999.3
20260902023611 85 209 1.0 3.0 0.00 0.00 0.00 69 999.3
20260902023111 85 209 1.0 3.0 0.00 0.00 0.00 68 999.2
20260902022612 86 209 1.0 2.0 0.00 0.00 0.00 68 999.2
20260902022112 86 209 0.0 2.0 0.00 0.00 0.00 67 999.2
20260902021843 87 209 0.0 1.0 0.00 0.00 0.00 66 999.0
20260902021110 87 209 0.0 0.0 0.00 0.00 0.00 65 999.0
20260902020610 88 209 0.0 1.0 0.00 0.00 0.00 64 999.0
20260902020110 88 209 0.0 1.0 0.00 0.00 0.00 63 999.0
20260902015610 89 209 1.0 2.0 0.00 0.00 0.00 62 998.9
20260902015341 90 209 2.0 2.0 0.00 0.00 0.00 61 998.9
20260902014611 90 209 0.0 2.0 0.00 0.00 0.00 59 998.8
20260902014110 90 209 0.0 2.0 0.00 0.00 0.00 58 998.8
20260902013611 91 209 0.0 2.0 0.00 0.00 0.00 57 998.7
20260902013112 91 209 1.0 3.0 0.00 0.00 0.00 57 998.6
20260902012609 91 209 1.0 3.0 0.00 0.00 0.00 56 998.6
20260902012109 92 210 1.0 4.0 0.00 0.00 0.00 56 998.5
20260902011610 92 185 1.0 5.0 0.00 0.00 0.00 56 998.6
20260902011110 92 223 2.0 5.0 0.00 0.00 0.00 55 998.5
20260902010841 92 250 2.0 6.0 0.00 0.00 0.00 55 998.5
20260902010109 92 244 4.0 6.0 0.00 0.00 0.00 54 998.4
20260902005609 93 251 4.0 6.0 0.00 0.00 0.00 54 998.3
20260902005341 93 209 3.0 6.0 0.00 0.00 0.00 53 998.2
20260902004610 93 247 4.0 9.0 0.00 0.00 0.00 52 998.2
20260902004341 93 238 4.0 9.0 0.00 0.00 0.00 52 998.2
20260902003840 94 250 4.0 6.0 0.00 0.00 0.00 52 998.2
20260902003109 94 217 4.0 7.0 0.00 0.00 0.00 51 998.2
20260902002609 94 258 5.0 7.0 0.00 0.00 0.00 51 998.1
20260902002109 94 230 4.0 7.0 0.00 0.00 0.00 51 998.2
20260902001608 95 244 4.0 13.0 0.00 0.00 0.00 50 998.1
20260902001109 95 219 6.0 13.0 0.00 0.00 0.00 50 998.1
20260902000609 95 234 5.0 12.0 0.00 0.00 0.00 50 998.1
20260902000107 96 233 6.0 12.0 0.00 0.00 0.00 50 998.1
20260901235607 96 261 6.0 12.0 0.00 0.00 0.00 50 998.0
20260901235107 96 219 6.0 10.0 0.00 0.00 0.00 50 998.1
20260901234608 97 192 7.0 10.0 0.00 0.00 0.00 49 998.1
20260901234108 97 252 4.0 9.0 0.00 0.00 0.00 49 998.1
20260901233607 98 195 3.0 4.0 0.00 0.00 0.00 48 998.2
20260901233108 98 224 1.0 5.0 0.00 0.00 0.00 47 998.2
20260901232608 98 155 3.0 5.0 0.00 0.00 0.00 47 998.2
20260901232106 98 106 1.0 3.0 0.00 0.00 0.00 47 998.2
20260901231607 98 107 1.0 3.0 0.00 0.00 0.00 46 998.1
20260901231107 98 214 0.0 4.0 0.00 0.00 0.00 45 998.1
20260901230607 98 214 2.0 4.0 0.00 0.00 0.00 45 998.2
20260901230108 98 248 2.0 3.0 0.00 0.00 0.00 44 998.2
20260901225607 98 248 2.0 3.0 0.00 0.00 0.00 44 998.2
20260901225106 98 248 1.0 5.0 0.00 0.00 0.00 45 998.2
20260901224606 98 248 2.0 5.0 0.00 0.00 0.00 44 998.1
20260901224105 98 251 3.0 5.0 0.00 0.00 0.00 43 998.1
20260901223838 98 219 3.0 5.0 0.00 0.00 0.00 43 998.2
20260901223104 99 219 3.0 5.0 0.00 0.00 0.00 42 998.2
20260901222604 99 213 3.0 4.0 0.00 0.00 0.00 41 998.2
20260901222105 100 134 2.0 6.0 0.00 0.00 0.00 41 998.1
20260901221606 100 257 2.0 6.0 0.00 0.00 0.00 40 998.1
20260901221106 100 231 4.0 10.0 0.00 0.00 0.00 40 998.2
20260901220605 100 204 4.0 10.0 0.00 0.00 0.00 39 998.1
20260901220104 100 210 5.0 7.0 0.00 0.00 0.00 39 998.1
20260901215605 100 251 4.0 7.0 0.00 0.00 0.00 39 998.1
20260901215104 100 261 5.0 7.0 0.00 0.00 0.00 39 998.1
20260901214604 101 161 3.0 6.0 0.00 0.00 0.00 39 998.2
20260901214334 101 219 4.0 6.0 0.00 0.00 0.00 39 998.2
20260901213604 101 168 3.0 6.0 0.00 0.00 0.00 40 998.2
20260901212604 100 75 2.0 9.0 0.00 0.00 0.00 39 998.2
20260901212104 100 186 3.0 10.0 0.00 0.00 0.00 39 998.2
20260901211834 101 197 6.0 10.0 0.00 0.00 0.00 39 998.3
20260901211335 101 268 3.0 5.0 0.00 0.00 0.00 39 998.3
20260901210604 100 269 3.0 5.0 0.00 0.00 0.00 39 998.4
20260901210332 100 27 2.0 5.0 0.00 0.00 0.00 38 998.3
20260901205603 100 0 1.0 4.0 0.00 0.00 0.00 39 998.4
20260901205103 100 274 1.0 4.0 0.00 0.00 0.00 39 998.4
20260901204834 100 0 1.0 4.0 0.00 0.00 0.00 39 998.5
20260901204102 100 269 2.0 4.0 0.00 0.00 0.00 38 998.5
20260901203602 100 245 4.0 6.0 0.00 0.00 0.00 38 998.5
20260901203100 100 244 4.0 6.0 0.00 0.00 0.00 38 998.6
20260901202602 100 210 2.0 6.0 0.00 0.00 0.00 38 998.6
20260901202101 99 204 2.0 7.0 0.00 0.00 0.00 39 998.6
20260901201600 99 258 2.0 7.0 0.00 0.00 0.00 40 998.8
20260901201100 100 214 2.0 10.0 0.00 0.00 0.00 40 998.8
20260901200602 100 221 3.0 13.0 0.00 0.00 0.00 39 998.9
20260901195601 101 257 4.0 12.0 0.00 0.00 0.00 40 998.9
20260901195102 101 210 1.0 6.0 0.00 0.00 0.00 40 999.0
20260901194600 100 220 2.0 11.0 0.00 0.00 0.00 40 999.1
20260901194100 100 340 2.0 11.0 0.00 0.00 0.00 41 999.1
20260901193600 100 252 2.0 10.0 0.00 0.00 0.00 40 999.2
20260901193335 100 317 2.0 5.0 0.00 0.00 0.00 42 999.2
20260901192836 99 323 3.0 10.0 0.00 0.00 0.00 43 999.3
20260901192101 99 278 5.0 11.0 0.00 0.00 0.00 42 999.4
20260901191601 99 274 2.0 11.0 0.00 0.00 0.00 42 999.3
20260901191100 99 197 4.0 10.0 0.00 0.00 0.00 42 999.5
20260901190559 99 266 6.0 13.0 0.00 0.00 0.00 42 999.7
20260901190331 100 254 6.0 13.0 0.00 0.00 0.00 41 999.7
20260901185600 100 282 0.0 5.0 0.00 0.00 0.00 43 999.7
20260901185059 99 213 1.0 5.0 0.00 0.00 0.00 44 999.7
20260901184600 98 230 3.0 10.0 0.00 0.00 0.00 46 999.7
20260901184059 98 251 5.0 10.0 0.00 0.00 0.00 45 999.7
20260901183558 99 255 6.0 10.0 0.00 0.00 0.00 44 999.8
20260901183058 99 255 6.0 10.0 0.00 0.00 0.00 44 1000.0
20260901182559 99 247 4.0 9.0 0.00 0.00 0.00 44 1000.0
20260901182328 99 252 5.0 9.0 0.00 0.00 0.00 45 1000.0
20260901181558 98 223 6.0 7.0 0.00 0.00 0.00 45 1000.1
20260901181056 98 228 2.0 9.0 0.00 0.00 0.00 48 1000.1
20260901180611 98 258 5.0 9.0 0.00 0.00 0.00 46 1000.2
20260901180058 98 237 4.0 6.0 0.00 0.00 0.00 46 1000.3
20260901175828 98 237 4.0 12.0 0.00 0.00 0.00 46 1000.3
20260901175057 98 212 6.0 12.0 0.00 0.00 0.00 45 1000.5
20260901174556 98 241 6.0 11.0 0.00 0.00 0.00 45 1000.5
20260901173555 0 0.0 0.0 0.00 0.00 0.00 1000.7
20260901173054 0 0.0 0.0 0.00 0.00 0.00 1000.7
20260901172554 97 252 5.0 10.0 0.00 0.00 0.00 49 1000.8
20260901172323 97 252 5.0 13.0 0.00 0.00 0.00 49 1000.8
20260901171552 96 264 8.0 13.0 0.00 0.00 0.00 50 1000.8
20260901171051 96 243 8.0 10.0 0.00 0.00 0.00 51 1000.9
20260901170822 96 237 5.0 14.0 0.00 0.00 0.00 51 1001.0
20260901170051 96 241 8.0 14.0 0.00 0.00 0.00 51 1001.0
20260901165551 96 185 4.0 11.0 0.00 0.00 0.00 52 1001.0
20260901165050 95 261 5.0 14.0 0.00 0.00 0.00 53 1001.1